Wind_Speed
2 2 2 3 3 4 4 5 5 6 6 6 6 7 7 7 7 6 5 5 5 5 5 5 5 4 5 4 4 4 4 5 5 6 6 6 6 6 6 7 7 7 7
3 3 3 4 4 5 5 5 5 6 6 7 7 7 7 7 7 6 6 6 6 6 5 6 5 5 5 5 5 6 6 6 6 7 7 7 7 7 7 7 7 7 7
3 4 4 5 5 5 6 6 6 7 7 7 7 7 8 8 8 8 7 7 6 6 6 6 6 6 6 6 6 6 7 7 7 7 7 7 7 7 8 8 7 7 7
4 4 5 5 6 6 7 7 8 8 9 9 9 8 8 8 8 7 7 7 7 7 7 7 7 7 6 6 6 7 7 7 7 7 7 7 7 8 9 9 8 8 8
5 5 5 6 7 7 7 8 9 10 10 11 10 9 9 8 9 9 8 8 8 9 8 8 7 7 7 7 7 7 7 7 7 7 8 8 8 9 9 9 9 9 9
5 6 6 6 7 7 8 9 10 10 10 11 10 10 10 9 9 9 9 9 9 9 9 8 8 8 7 7 7 8 8 8 8 8 8 8 8 9 9 9 9 9 9
6 6 6 6 6 7 8 9 9 9 8 9 10 10 9 10 10 10 10 9 9 10 9 9 9 8 8 8 8 8 8 8 8 8 8 8 8 9 9 10 10 10 10
6 7 7 7 7 7 8 9 7 7 7 8 9 10 10 10 10 9 9 9 10 10 10 10 9 9 9 9 9 8 9 9 9 8 8 8 9 9 9 9 10 11 11
7 8 7 7 8 8 8 7 6 6 6 7 8 8 9 9 9 9 9 9 9 9 9 9 9 9 10 10 10 10 10 10 10 10 10 10 10 10 10 10 10 11 12
8 8 8 8 8 8 8 8 8 7 7 7 7 8 8 9 9 9 9 9 9 9 9 9 10 10 9 9 10 10 10 10 11 11 10 11 11 11 11 11 11 12 12
8 8 8 8 8 9 8 9 8 7 8 7 7 8 8 9 9 9 9 9 10 9 9 9 10 9 9 9 10 10 11 11 11 11 10 11 11 11 12 12 11 12 12
8 8 8 8 8 8 8 8 9 8 8 8 8 8 9 9 9 9 9 9 9 9 9 9 9 9 9 10 10 10 11 11 11 11 11 11 11 11 12 12 12 12 12
9 9 9 9 9 9 9 8 9 9 9 9 9 9 9 9 9 10 10 10 9 9 9 9 10 10 10 10 10 11 11 12 11 12 11 11 11 11 11 11 12 13 12
9 9 9 9 9 9 9 9 9 9 9 9 10 11 10 10 10 11 10 10 10 10 10 10 10 11 11 11 11 12 12 12 12 12 11 11 11 11 12 12 12 12 12
9 9 10 10 9 9 9 9 9 9 9 9 10 11 11 11 11 11 11 10 10 10 10 10 11 11 11 12 12 13 13 12 12 12 12 12 12 12 12 12 12 12 12
10 10 10 10 10 10 10 10 9 9 9 9 10 10 11 11 12 12 12 11 11 11 11 11 12 12 13 13 13 13 13 12 12 12 12 12 12 12 12 12 12 13 13
11 11 11 11 11 11 10 10 10 10 10 10 10 10 11 12 12 13 13 12 12 12 12 13 13 13 13 13 14 14 13 13 13 12 12 13 13 13 13 13 13 13 14
12 13 13 12 12 12 11 11 11 11 11 11 11 12 12 13 14 14 14 14 13 13 13 13 13 13 13 13 14 14 14 14 13 13 13 13 13 13 13 14 14 14 14
12 13 13 13 13 13 13 13 13 13 13 13 13 13 14 14 14 15 14 14 14 14 14 14 14 14 14 13 13 14 14 14 14 14 14 14 14 14 14 14 14 13 13
13 14 14 14 14 14 14 14 14 14 14 14 14 14 14 14 13 14 14 15 15 15 15 15 15 14 14 14 14 14 14 14 15 15 15 15 15 15 15 14 14 14 13
14 14 13 14 14 14 15 16 15 14 14 14 14 14 14 14 14 14 15 15 16 16 16 16 16 15 15 15 15 15 15 16 16 15 15 15 15 15 15 15 14 15 14
14 14 14 13 13 13 14 14 14 14 14 14 15 15 15 15 15 15 16 16 17 17 17 17 18 17 17 16 16 16 15 15 16 16 15 15 16 16 16 16 15 15 15
13 13 14 14 14 14 14 14 14 15 14 15 15 15 15 15 15 15 16 16 17 17 18 18 19 19 18 17 17 17 17 17 16 16 16 16 16 17 17 17 16 16 16
13 13 14 15 15 15 15 15 15 16 16 16 16 15 15 15 16 16 16 16 17 17 18 18 19 19 19 19 18 18 18 18 18 18 17 17 17 17 17 17 17 17 16
13 13 14 15 16 16 16 16 16 17 17 17 16 16 16 16 16 16 17 17 17 17 18 19 19 20 20 20 19 19 19 19 19 20 19 18 18 18 18 18 18 18 17
14 14 15 15 16 16 17 17 17 17 17 18 17 17 17 18 18 18 19 19 19 19 19 19 19 20 20 20 20 20 20 19 20 20 20 20 19 18 18 18 18 18 17
Wind_Direction
254 272 268 271 277 283 286 288 288 282 276 272 268 267 266 264 266 265 262 266 269 269 270 274 277 277 274 262 250 240 232 227 217 218 213 215 217 216 215 215 216 218 223
266 274 275 279 283 287 287 288 287 283 274 270 269 265 263 262 264 262 263 263 266 267 269 272 275 277 272 264 259 253 248 243 231 228 229 229 228 228 227 225 225 223 232
273 285 285 284 285 285 287 286 284 280 276 269 266 265 261 259 260 261 266 265 268 270 271 278 274 278 274 267 265 260 255 248 245 240 239 238 237 238 235 230 227 229 238
277 283 285 285 282 281 285 286 281 276 272 267 263 261 259 256 258 264 266 265 268 269 272 277 279 277 275 268 267 267 262 253 249 246 245 244 243 240 239 235 232 235 240
278 280 286 288 284 282 286 288 286 281 272 263 256 255 256 257 258 264 267 266 266 265 267 272 276 279 279 276 267 264 262 256 253 252 250 247 246 244 243 240 238 239 240
280 280 286 290 286 285 289 294 293 284 270 258 252 253 256 256 256 261 266 266 266 265 266 270 272 275 276 275 269 260 253 252 251 252 250 247 245 245 244 243 244 242 242
281 283 281 285 286 288 294 298 295 289 270 255 251 252 255 256 257 259 264 266 264 263 264 268 273 276 275 270 267 260 249 249 249 251 249 247 248 246 243 243 246 246 248
281 282 278 278 282 287 292 300 298 291 266 253 253 253 256 258 258 260 264 263 260 262 266 270 273 274 273 270 268 264 257 252 251 252 251 250 250 250 247 245 248 248 250
280 278 276 277 279 284 290 294 296 285 267 260 257 254 257 258 258 258 262 263 260 261 266 270 273 274 271 268 267 266 263 256 252 251 250 248 250 252 251 252 251 251 251
278 278 277 278 280 283 288 291 287 280 274 269 262 258 257 262 264 262 264 264 260 260 266 270 274 273 269 267 266 265 264 263 258 254 251 247 249 254 255 253 254 255 255
277 277 279 280 283 284 286 288 286 280 279 275 269 262 260 262 266 268 267 268 268 266 268 272 273 272 268 268 269 266 262 262 265 258 255 253 252 255 256 255 255 254 257
275 276 278 278 282 286 287 287 287 282 278 277 272 268 269 269 267 265 265 267 268 267 268 270 270 269 268 269 269 268 263 263 268 263 261 258 257 257 257 253 253 254 256
274 273 276 275 279 281 284 284 287 286 279 275 270 271 272 270 270 267 264 264 266 266 266 269 271 270 268 270 270 267 266 264 264 264 261 259 257 257 256 255 254 255 257
273 272 271 271 275 277 281 284 286 284 280 277 272 269 269 268 270 271 266 265 266 265 264 265 268 268 267 269 270 269 267 265 263 263 259 257 256 257 257 255 254 253 256
272 275 275 275 275 277 281 281 283 283 279 278 276 271 269 268 270 270 270 267 267 267 265 266 267 266 268 268 268 268 267 267 263 261 259 257 257 259 261 256 252 252 253
272 274 275 275 277 276 278 280 283 282 282 280 278 275 274 271 271 269 268 269 267 266 269 269 269 268 268 267 266 265 264 262 261 261 259 260 259 259 261 260 260 255 254
275 276 276 276 275 274 274 279 281 282 282 280 278 277 276 272 271 271 268 268 267 267 269 270 271 270 268 267 266 263 261 259 260 261 262 260 258 258 258 261 263 258 255
274 275 275 275 274 273 274 278 279 280 281 279 280 280 278 274 271 271 269 268 267 267 268 267 268 269 268 266 265 263 259 257 259 260 263 261 258 258 260 260 263 259 255
274 272 272 274 274 273 273 277 277 279 279 277 278 279 277 275 272 269 269 266 266 266 266 267 266 266 267 265 264 262 260 258 260 262 264 264 262 261 264 264 262 260 256
275 275 274 273 275 276 276 278 278 277 276 276 278 278 276 274 272 270 267 265 264 264 266 266 266 266 266 267 265 262 261 261 261 264 264 265 264 262 262 259 259 258 258
273 275 274 273 275 275 276 278 277 274 274 275 277 277 275 275 271 270 267 265 264 263 265 265 264 265 266 267 267 265 263 263 262 262 262 262 261 261 261 259 256 257 256
275 276 275 274 276 279 278 279 275 276 277 279 279 276 276 276 273 271 271 268 265 263 265 265 265 264 265 266 266 266 266 265 263 260 259 261 262 261 261 261 259 257 258
277 277 277 278 280 282 281 281 280 280 278 278 279 277 277 276 275 273 272 273 270 266 266 266 266 266 265 265 266 266 265 263 262 260 260 261 262 262 260 261 260 257 256
277 277 277 278 281 281 281 282 281 279 277 278 276 275 276 277 276 274 272 272 272 270 269 267 266 265 264 264 264 263 263 263 262 261 261 261 261 262 262 259 259 259 257
279 278 278 279 279 279 280 282 282 282 281 280 276 275 276 276 275 274 272 272 271 270 270 269 268 265 265 263 261 262 262 262 262 260 261 262 262 262 263 261 259 258 257
283 281 280 281 280 279 280 282 282 282 281 281 278 275 274 274 275 274 272 271 270 269 270 270 269 267 265 263 261 261 261 262 262 261 260 261 263 263 261 260 260 259 258
Height
5872 5872 5872 5872 5871 5871 5871 5871 5871 5871 5871 5871 5870 5871 5871 5871 5871 5871 5871 5871 5870 5870 5870 5870 5870 5869 5869 5869 5869 5869 5868 5868 5868 5869 5869 5869 5869 5870 5870 5870 5870 5871 5871
5872 5871 5871 5871 5871 5871 5870 5870 5870 5870 5869 5869 5869 5869 5870 5870 5870 5870 5870 5870 5869 5869 5869 5869 5869 5869 5868 5868 5868 5868 5868 5868 5868 5868 5868 5868 5869 5869 5869 5869 5869 5870 5870
5870 5870 5870 5870 5870 5870 5869 5869 5869 5868 5868 5868 5868 5868 5868 5868 5868 5869 5869 5869 5869 5868 5868 5868 5868 5867 5867 5867 5867 5867 5867 5867 5867 5867 5867 5867 5868 5868 5868 5868 5868 5868 5869
5869 5869 5869 5869 5868 5868 5868 5867 5867 5866 5866 5866 5866 5867 5867 5867 5867 5867 5867 5868 5867 5867 5867 5867 5867 5866 5866 5866 5866 5866 5866 5866 5865 5865 5866 5866 5866 5866 5867 5867 5867 5867 5867
5868 5868 5868 5868 5867 5867 5866 5865 5864 5863 5862 5863 5864 5865 5865 5866 5866 5866 5866 5866 5866 5866 5866 5865 5865 5865 5865 5865 5865 5864 5864 5864 5864 5864 5864 5864 5865 5865 5865 5865 5865 5866 5866
5867 5867 5867 5866 5866 5865 5864 5862 5860 5858 5857 5859 5861 5863 5864 5864 5864 5864 5864 5864 5864 5864 5864 5864 5864 5864 5864 5864 5863 5863 5863 5863 5862 5862 5863 5863 5863 5863 5863 5863 5864 5864 5864
5866 5865 5865 5865 5864 5864 5862 5860 5857 5854 5854 5856 5859 5861 5862 5862 5862 5863 5863 5863 5863 5863 5863 5863 5862 5862 5862 5862 5862 5862 5862 5861 5861 5861 5861 5861 5861 5861 5862 5862 5862 5862 5862
5864 5864 5864 5863 5863 5863 5862 5859 5856 5854 5854 5855 5858 5859 5860 5860 5861 5861 5861 5861 5861 5861 5861 5861 5861 5860 5860 5860 5860 5860 5860 5860 5860 5860 5860 5860 5860 5860 5860 5860 5860 5860 5860
5863 5863 5862 5862 5862 5861 5861 5859 5858 5856 5855 5856 5857 5858 5858 5859 5859 5859 5859 5859 5859 5859 5859 5859 5859 5858 5858 5858 5858 5858 5858 5858 5858 5858 5858 5858 5857 5858 5858 5857 5857 5858 5858
5861 5861 5861 5861 5860 5860 5859 5858 5857 5856 5856 5856 5856 5856 5857 5857 5857 5857 5857 5857 5857 5857 5857 5857 5856 5856 5856 5856 5856 5856 5856 5856 5855 5855 5855 5855 5855 5855 5855 5855 5855 5855 5855
5860 5859 5859 5859 5859 5858 5858 5857 5856 5855 5855 5855 5855 5855 5855 5855 5855 5855 5854 5854 5854 5854 5854 5854 5854 5854 5854 5854 5854 5854 5854 5853 5853 5853 5853 5853 5853 5853 5853 5853 5853 5853 5853
5858 5858 5858 5857 5857 5856 5856 5856 5855 5854 5854 5853 5853 5853 5853 5853 5853 5852 5852 5852 5852 5852 5852 5852 5852 5852 5852 5851 5851 5851 5851 5851 5851 5851 5851 5850 5850 5850 5850 5851 5850 5850 5851
5856 5856 5856 5855 5855 5854 5854 5854 5853 5853 5852 5851 5851 5851 5851 5850 5850 5850 5850 5850 5849 5849 5849 5849 5849 5849 5849 5849 5849 5849 5849 5849 5849 5849 5848 5848 5848 5848 5848 5848 5848 5848 5848
5854 5853 5853 5853 5853 5852 5852 5851 5851 5851 5850 5850 5849 5849 5848 5848 5848 5848 5847 5847 5847 5847 5847 5847 5847 5847 5847 5847 5847 5846 5846 5846 5846 5846 5846 5846 5845 5845 5845 5845 5845 5845 5845
5851 5851 5851 5851 5850 5850 5849 5849 5849 5848 5848 5847 5847 5846 5846 5846 5845 5845 5845 5845 5845 5845 5845 5844 5844 5844 5844 5844 5844 5844 5844 5843 5843 5843 5843 5843 5843 5843 5843 5842 5842 5843 5843
5848 5848 5848 5848 5848 5847 5847 5846 5846 5846 5845 5845 5844 5844 5843 5843 5843 5842 5842 5842 5842 5842 5842 5841 5841 5841 5841 5841 5841 5841 5841 5841 5841 5841 5840 5840 5840 5840 5840 5840 5840 5840 5840
5846 5845 5845 5845 5845 5845 5844 5844 5843 5843 5843 5842 5842 5841 5841 5840 5840 5839 5839 5839 5839 5839 5839 5839 5839 5838 5838 5838 5838 5837 5837 5838 5838 5838 5838 5837 5837 5837 5837 5837 5837 5837 5837
5843 5843 5842 5842 5842 5842 5841 5841 5841 5840 5840 5839 5838 5838 5837 5837 5836 5836 5836 5836 5836 5836 5836 5836 5835 5835 5835 5835 5835 5834 5834 5834 5834 5835 5835 5834 5834 5834 5834 5833 5833 5833 5833
5840 5840 5839 5839 5838 5838 5838 5838 5837 5837 5836 5836 5835 5835 5834 5834 5833 5833 5832 5832 5832 5832 5832 5832 5832 5832 5832 5831 5831 5831 5831 5831 5831 5831 5831 5831 5831 5831 5830 5830 5830 5830 5830
5837 5836 5836 5835 5835 5834 5834 5834 5834 5833 5833 5832 5831 5831 5830 5830 5829 5829 5829 5829 5828 5828 5828 5828 5828 5828 5828 5828 5828 5828 5828 5828 5828 5828 5827 5827 5827 5827 5827 5827 5827 5826 5827
5833 5833 5833 5832 5832 5831 5830 5830 5829 5829 5829 5828 5827 5827 5826 5826 5826 5825 5825 5825 5824 5824 5824 5824 5824 5824 5824 5824 5824 5824 5824 5824 5824 5824 5824 5824 5823 5823 5823 5823 5823 5823 5824
5829 5828 5829 5828 5828 5827 5827 5826 5825 5825 5824 5824 5823 5823 5822 5822 5821 5821 5821 5821 5820 5820 5820 5820 5820 5820 5820 5820 5820 5820 5820 5821 5820 5820 5820 5820 5820 5820 5820 5820 5820 5820 5821
5825 5825 5825 5824 5824 5824 5823 5822 5821 5820 5820 5820 5819 5818 5818 5817 5817 5816 5816 5816 5816 5815 5816 5815 5815 5816 5815 5816 5816 5816 5816 5816 5816 5816 5816 5816 5816 5816 5816 5816 5816 5817 5817
5822 5821 5821 5820 5820 5819 5819 5818 5817 5816 5816 5815 5814 5814 5813 5812 5812 5812 5811 5811 5811 5811 5810 5810 5810 5810 5810 5811 5811 5811 5811 5811 5812 5812 5812 5812 5812 5812 5812 5812 5812 5813 5813
5818 5817 5817 5816 5816 5815 5814 5814 5813 5812 5811 5809 5809 5809 5808 5808 5807 5807 5806 5806 5806 5805 5805 5805 5805 5805 5805 5805 5805 5806 5806 5806 5807 5807 5807 5807 5808 5808 5808 5808 5808 5808 5809
5814 5813 5813 5812 5811 5811 5810 5809 5809 5807 5806 5805 5804 5803 5802 5802 5801 5801 5801 5800 5800 5800 5799 5799 5799 5799 5799 5799 5800 5800 5801 5801 5801 5802 5802 5802 5803 5803 5803 5803 5804 5804 5804